Regional Weather Roundup
Issued by NWS Green Bay, WI

Home | Current Version | Previous Version | Text Only | Print | Product List | Glossary On
Versions: 1 2 3 4 5 6 7 8 9 10 11 12 13 14 15 16 17 18 19 20 21 22 23 24 25 26 27 28 29 30 31 32 33 34 35 36 37 38 39 40 41 42 43 44 45 46 47 48 49 50
000
ASUS43 KGRB 021011
RWRGRB

NORTH-CENTRAL AND NORTHEAST WISCONSIN REGIONAL WEATHER ROUNDUP
NATIONAL WEATHER SERVICE GREEN BAY WI
500 AM CDT THU JUL 02 2015

WIZ005-009-010>012-018-019-021100-
NORTH CENTRAL WISCONSIN

CITY           SKY/WX    TMP DP  RH WIND       PRES   REMARKS
IRONWOOD       CLEAR     48  45  87 CALM      30.01R
MANITOWISH WTR NOT AVBL
ARBOR VITAE    CLEAR     47  45  93 CALM      30.06R
EAGLE RIVER    NOT AVBL
LAND O LAKES   MOCLDY    41  41 100 CALM      30.07R
RHINELANDER    CLEAR     44  42  93 CALM      30.06R
PHILLIPS       NOT AVBL
ANTIGO         CLEAR     46  46 100 CALM      30.07R
TOMAHAWK       NOT AVBL
MERRILL        NOT AVBL
$$

WIZ013-073-021100-
NORTHEAST WISCONSIN

CITY           SKY/WX    TMP DP  RH WIND       PRES   REMARKS
IRON MOUNTAIN  CLEAR     42  40  92 N5        30.05R
MARINETTE      CLEAR     46  41  81 CALM      30.05R
$$

WIZ017-030-035>037-045-021100-
CENTRAL WISCONSIN

CITY           SKY/WX    TMP DP  RH WIND       PRES   REMARKS
MEDFORD        CLEAR     49  48  98 E3        30.05R
WAUSAU         CLEAR     50  47  89 E5        30.05R
MOSINEE        NOT AVBL
MARSHFIELD     FOG       54  51  90 SE8       30.05R VSB 3/4
WISC RAPIDS    CLEAR     52  49  89 CALM      30.06R FOG
STEVENS POINT  CLEAR     49  48  97 CALM      30.06R
WAUPACA        NOT AVBL
SHAWANO        NOT AVBL
CLINTONVILLE   NOT AVBL
$$

WIZ038-039-048-051-021100-
FOX VALLEY

CITY           SKY/WX    TMP DP  RH WIND       PRES   REMARKS
NWS GREEN BAY  CLEAR     47  46  97 CALM      30.05R
APPLETON       NOT AVBL
OSHKOSH        CLEAR     50  45  83 CALM      30.04R
FOND DU LAC    CLEAR     46  44  93 CALM      30.04R
$$

WIZ022-050-052-021100-
EAST CENTRAL WISCONSIN

CITY           SKY/WX    TMP DP  RH WIND       PRES   REMARKS
STURGEON BAY   CLEAR     46  43  87 CALM      30.07R
MANITOWOC      CLEAR     46  45  96 MISG      30.05R
SHEBOYGAN      CLEAR     48  45  89 NW3       30.05R
$$

LMZ563-521-522-541>543-021100-
LAKESHORE

STATION/POSITION TIME  TEMP    WIND        PRES    VSBY  WAVE
                       AIR SEA DIR/SP/G                  HT/PER
                 (UTC) (F)     (DEG/KT/KT) (MB)    (MI)  (FT/S)
SHEBOYGAN LKSHOR 1000   56      20/ 11/ 12 1017.7R
KEWAUNEE LKSHORE 0900   47     310/  1/  3 1016.5S
ALGOMA MARINA    0910             CALM       N/A
NORTHPORT PIER   0900   50        CALM     1017.3S
N MID LAKE BUOY  0950   49 41  330/  4/  4 1017.8R         0
S GREEN BAY BUOY 0900   59 68  100/  6/ 10 1018.5R
SISTER BAY LKSHO 0914   53     120/  5/  6   N/A
CHAMBERS ISLAND  0900   49        CALM     1017.3S
MENOMINEE LKSHOR 0900   54     260/  2/  3 1018.0R
$$



USA.gov is the U.S. government's official web portal to all federal, state and local government web resources and services.